Location: Newark
(21.1200°N, 73.4000°E)
Time: 06:57:33
(UTC+00:00)

Vanguard 1 Rocket - Pass Details

Date: 25 January 2020
Orbit: 650 x 4226 km, 34.3° (Epoch: 20 February)

Event Time Altitude Azimuth Distance (km) Brightness Sun altitude
Rises 15:13:15 0° 269° (W) 8,384 13.4 -32.7°
Reaches altitude 10° 15:26:02 10° 245° (WSW) 7,381 12.7 -35.6°
Maximum altitude 15:33:59 12° 226° (SW) 6,941 12.4 -37.5°
Drops below altitude 10° 15:41:25 10° 207° (SSW) 6,732 12.1 -39.2°
Sets 15:51:49 0° 180° (S) 6,898 12.0 -41.6°
